Theta_e
303 302 302 302 302 302 301 301 300 300 300 300 300 300 300 301 302 303 304 304 305 305 305 305 305 305 304 304 303 302 301 300 300 299 299 299 299 299 299 299 299 299 299 299 300 300 300 300 301 303 305 308 312 315 318 320 321 322 322 321 321 321 321 321 321 320 319 319 318 318 318 318 317 317 317 318 318 319 320 321 322 322 322 321 321 320
301 301 301 301 301 301 301 300 300 301 301 301 301 301 301 302 303 304 305 305 306 306 306 306 305 304 304 303 301 300 300 299 299 299 299 300 300 299 299 299 299 299 299 299 299 299 300 300 300 301 302 304 307 310 313 316 319 320 321 321 321 321 321 321 321 320 319 319 318 318 318 318 317 317 318 319 320 321 321 322 322 322 322 321 320 319
300 300 300 300 300 300 300 300 300 300 300 300 300 300 301 301 302 303 304 305 305 305 305 304 303 302 301 300 299 299 299 299 300 300 300 300 300 300 300 299 299 298 298 298 298 298 298 299 299 300 300 301 303 305 308 312 315 318 320 321 321 321 321 321 320 320 320 319 318 318 318 317 317 317 318 320 322 322 322 322 322 322 321 319 319 319
298 298 298 298 298 298 298 298 299 299 299 299 299 299 299 300 300 301 301 302 302 301 301 300 300 299 299 298 298 299 299 300 301 301 301 301 300 299 299 298 298 297 297 297 297 298 298 298 299 299 299 299 300 302 304 307 310 314 317 319 320 321 321 321 321 320 320 319 318 318 318 318 317 318 318 320 321 322 322 322 322 321 320 319 318 318
297 297 297 297 297 297 297 297 297 297 297 297 297 297 298 298 298 298 298 298 298 298 298 298 297 298 298 298 299 300 301 302 302 302 301 300 299 298 298 298 298 298 298 298 298 298 298 298 299 299 299 299 299 300 301 303 306 309 313 316 318 320 321 321 321 321 320 319 319 319 319 318 318 318 318 320 320 321 321 322 322 321 320 319 319 319
295 295 295 296 296 296 296 296 296 296 296 296 296 296 296 296 296 296 296 296 296 296 296 297 297 298 298 299 300 301 302 302 302 302 301 300 299 299 299 300 301 301 301 301 300 300 299 299 299 299 300 300 300 300 300 301 303 306 309 312 316 318 320 320 321 321 321 320 320 319 319 319 319 319 320 320 319 319 320 320 321 321 320 319 319 319
294 294 294 294 294 294 295 295 295 295 295 295 295 295 295 295 295 295 295 295 295 296 296 296 297 297 298 299 299 300 300 300 299 299 299 298 299 300 301 303 303 304 304 304 303 302 301 301 300 300 300 300 300 300 300 300 302 303 306 309 312 315 318 319 320 321 321 321 321 320 320 320 320 320 321 320 319 319 319 319 319 319 319 319 319 319
293 293 293 293 293 294 294 294 294 294 294 294 294 294 294 294 295 295 295 295 295 295 295 295 296 296 296 296 296 296 297 297 297 297 298 299 300 301 303 303 304 305 305 305 305 304 303 303 302 301 301 301 301 301 300 300 301 302 304 306 309 312 315 317 319 320 320 321 321 320 320 321 321 321 321 321 319 319 318 319 319 318 318 319 319 319
292 292 293 293 293 293 293 293 293 293 293 294 294 294 295 295 295 295 295 295 294 294 294 294 294 294 294 295 296 296 297 298 298 299 300 301 302 302 303 304 304 304 305 305 305 305 304 303 303 302 301 300 300 300 300 300 301 301 302 304 306 309 312 314 316 318 319 320 320 320 320 320 320 320 320 320 319 319 318 319 318 318 318 318 319 320
292 292 292 293 293 293 293 293 293 293 293 294 294 294 295 295 294 294 294 293 293 293 293 294 294 295 296 297 297 298 299 299 300 301 301 302 302 302 303 303 304 304 304 305 305 305 305 304 303 302 300 299 298 298 298 299 299 300 301 302 304 306 309 312 314 316 317 318 319 319 319 319 319 320 320 319 319 319 318 319 319 319 318 318 319 320
292 292 293 293 293 293 293 293 293 293 294 294 294 294 294 294 293 293 293 293 293 293 294 294 295 296 297 297 298 298 299 299 299 300 300 300 301 301 301 302 302 302 303 303 303 304 303 302 301 300 298 297 297 297 297 298 298 299 299 300 302 304 306 309 312 314 316 317 318 318 319 319 319 319 319 319 319 319 318 319 319 319 318 318 319 319
292 293 293 293 293 293 293 293 293 293 293 293 293 293 293 293 293 293 293 293 293 293 294 294 294 295 295 295 295 296 296 296 296 297 297 297 297 298 298 298 298 299 299 299 299 299 299 298 297 297 297 297 297 298 298 298 298 298 298 299 300 302 304 307 310 312 314 316 317 317 318 318 318 319 319 319 319 319 319 318 318 318 318 318 318 319
293 293 293 293 293 293 293 293 293 293 293 293 293 292 292 292 292 292 293 293 293 293 293 293 293 293 293 293 293 293 293 293 294 294 294 294 295 295 295 295 295 296 296 296 296 296 296 296 297 298 298 299 299 299 299 299 299 299 299 299 299 300 303 305 308 311 313 315 316 317 317 318 318 318 319 319 319 319 319 319 319 318 318 318 318 319
292 292 293 293 292 292 292 292 292 292 292 292 292 292 292 292 292 292 292 292 292 292 292 292 292 292 292 292 292 293 293 293 293 293 293 293 294 294 295 295 295 295 295 295 295 296 297 298 299 300 300 300 300 300 300 300 300 299 299 299 299 300 302 304 307 310 312 314 316 317 317 318 318 318 318 318 318 318 318 318 318 318 318 318 318 319
291 292 292 292 292 292 292 292 292 292 292 291 291 291 291 291 291 291 292 292 292 292 292 292 293 293 293 292 292 293 293 293 293 293 293 293 294 294 295 295 295 296 296 296 296 296 297 298 299 300 301 301 301 301 301 300 300 300 299 299 299 300 301 303 306 309 311 313 315 316 317 317 318 318 318 318 318 318 318 318 318 318 318 319 319 319
290 291 291 291 291 291 291 291 291 291 291 291 291 291 291 291 291 291 292 292 292 292 293 293 293 293 292 292 292 292 293 293 293 293 293 293 293 293 294 294 295 295 296 296 295 295 295 296 297 298 300 300 301 301 301 300 300 299 299 299 299 300 300 303 305 308 311 313 314 315 316 316 317 318 318 318 318 318 318 318 318 318 319 319 319 319
289 290 290 290 290 290 290 290 290 290 290 290 290 290 290 291 291 291 292 292 292 292 292 292 293 293 292 292 292 292 292 293 293 293 293 293 293 292 293 293 293 293 294 294 294 294 293 293 294 295 297 298 299 300 300 300 300 299 299 299 300 300 301 302 303 306 309 311 313 314 315 315 316 317 317 317 317 317 317 317 318 318 319 319 319 319
289 289 289 289 289 289 289 289 289 289 290 290 290 290 290 291 291 291 291 292 292 292 292 292 292 292 292 292 292 292 292 293 293 293 293 293 292 292 292 292 292 292 292 292 292 292 292 291 291 292 293 294 296 297 298 299 299 299 298 299 300 301 301 301 302 303 306 308 311 313 314 315 315 315 316 316 316 316 317 317 318 318 318 319 319 318
289 289 289 289 289 289 289 289 290 290 290 290 290 290 290 291 291 291 291 291 291 292 292 292 292 292 292 292 292 292 292 292 292 292 292 292 291 291 291 291 291 291 291 291 291 290 290 290 290 290 291 291 292 293 294 295 296 297 297 298 300 301 302 302 302 302 303 305 308 310 312 313 314 314 315 315 315 315 316 317 317 318 318 318 318 317
290 289 289 289 289 289 289 289 289 290 290 290 290 290 290 290 290 290 291 291 291 291 291 291 291 291 291 291 291 291 291 291 291 291 291 291 291 291 291 291 291 291 291 291 291 290 290 290 290 290 290 291 291 291 292 292 293 293 294 296 298 300 302 303 302 302 302 303 305 307 308 310 312 313 314 314 314 315 315 316 317 317 317 317 317 317
290 289 289 289 289 289 289 289 289 289 289 290 290 290 290 290 290 290 290 290 290 290 290 290 290 290 290 290 290 290 291 291 291 291 291 292 292 291 291 292 292 291 291 291 291 291 291 290 290 291 291 291 291 291 291 291 291 292 292 293 296 298 301 302 303 303 302 302 303 303 305 307 309 311 313 314 314 314 315 315 316 316 317 317 317 317
288 288 288 288 289 289 289 289 289 289 289 289 289 289 290 290 290 290 290 290 290 290 290 290 290 290 290 291 291 291 290 290 290 290 291 291 290 290 291 291 291 292 292 292 292 292 292 292 291 291 291 291 291 291 291 291 291 291 292 292 294 296 298 301 302 303 303 302 302 302 303 304 305 308 311 312 313 314 314 314 315 315 316 316 316 316
287 287 287 287 287 288 288 288 288 288 288 289 289 289 290 290 290 290 290 290 290 290 290 290 290 290 290 289 289 289 289 289 289 289 289 290 290 290 290 291 291 292 292 292 293 293 293 293 293 292 292 292 292 292 292 292 292 292 292 292 293 294 295 298 300 302 303 303 303 302 302 302 303 305 308 311 312 313 313 314 314 314 315 315 316 316
286 286 286 287 287 287 287 287 287 287 287 287 288 288 288 289 289 289 289 289 289 289 288 289 289 289 288 288 288 288 288 288 289 289 289 289 289 290 290 290 291 291 292 292 293 293 294 294 294 294 294 293 293 292 292 292 293 293 293 293 293 294 294 295 297 299 301 302 302 302 302 302 302 304 306 309 311 312 312 313 313 313 314 314 315 315
287 287 287 287 288 288 288 288 288 288 287 287 287 287 287 288 288 288 288 288 288 288 288 288 288 288 288 288 288 288 288 288 289 289 289 289 289 289 290 290 291 291 292 292 293 293 294 294 294 295 295 294 293 293 293 293 293 294 293 293 294 294 293 294 295 296 298 300 301 302 302 302 302 303 305 307 310 311 312 312 312 312 313 313 314 315
287 287 288 288 289 289 289 289 289 288 288 289 289 289 288 288 288 288 288 288 288 288 288 288 288 288 288 288 288 289 289 289 289 289 289 289 289 289 289 290 290 290 291 291 292 293 293 293 294 294 294 294 294 294 294 294 294 294 294 294 294 294 294 293 294 294 295 297 299 300 301 302 302 303 303 306 308 310 310 311 311 311 312 312 313 314
287 288 288 288 288 288 288 288 288 288 289 289 289 289 289 289 289 289 289 289 289 289 289 289 289 289 289 289 289 289 289 289 289 289 289 289 289 289 289 289 290 290 290 291 291 292 292 292 292 293 294 294 294 294 294 294 294 294 294 294 294 294 294 294 293 293 294 295 297 298 300 302 302 302 303 304 306 308 309 310 310 310 311 312 312 313
287 287 287 287 287 287 288 288 288 289 289 289 289 289 289 289 289 289 289 289 290 290 290 290 290 290 290 290 290 290 290 290 290 289 289 289 289 289 289 289 289 290 290 290 290 291 291 291 291 292 292 293 294 294 294 294 294 294 295 294 294 294 294 294 294 293 293 294 295 297 299 301 302 302 302 302 304 305 307 308 309 309 310 311 312 312
287 287 287 287 287 287 288 288 289 289 289 289 289 289 289 289 290 290 290 290 291 291 291 291 291 291 291 291 291 290 290 290 289 289 289 289 289 289 289 290 290 290 290 290 290 290 290 291 291 291 292 293 293 294 294 295 295 295 295 295 294 294 294 294 294 294 294 295 295 297 299 301 302 302 301 301 301 302 304 306 308 309 309 310 311 312
288 288 287 287 287 287 288 289 290 290 289 289 289 289 289 290 290 291 291 291 291 291 291 291 291 291 290 290 290 290 289 289 289 289 289 289 290 290 290 290 290 290 290 290 290 290 290 290 291 291 292 293 293 294 294 295 295 295 295 296 295 295 295 295 295 296 296 296 297 298 300 301 302 302 301 300 300 300 302 304 306 308 308 309 310 311
288 288 287 286 286 287 288 290 290 290 290 290 290 290 290 290 290 290 290 290 290 290 290 290 290 289 289 289 289 289 289 288 289 289 289 290 290 290 290 290 290 290 290 290 290 290 290 290 291 291 292 292 293 293 294 294 294 295 295 296 296 296 297 297 297 297 296 296 296 297 299 300 301 301 301 300 298 298 299 302 305 307 308 309 309 310
287 287 286 286 286 286 287 287 288 288 288 288 288 289 289 289 289 289 289 289 289 289 289 288 288 288 288 288 288 288 288 288 288 289 289 289 290 290 290 290 290 289 289 289 289 289 290 290 291 291 292 292 292 292 292 292 292 293 294 294 295 296 297 297 297 297 296 295 295 295 296 297 298 299 300 299 298 297 297 300 303 306 307 308 309 310
286 286 286 286 286 286 286 286 286 286 286 287 287 287 287 287 287 287 287 288 288 288 288 288 288 288 288 288 288 288 288 288 288 288 289 289 289 289 289 289 289 289 289 289 289 289 290 290 291 292 292 292 292 292 292 291 292 292 292 293 293 294 295 296 297 296 295 295 295 295 295 295 296 296 297 297 297 296 295 298 301 304 307 307 308 309
286 286 286 286 286 287 286 286 286 286 286 287 287 287 287 287 287 287 287 287 287 288 288 288 288 288 288 288 288 288 288 288 288 288 289 289 289 289 289 289 289 289 289 289 290 290 291 292 292 293 293 292 292 292 291 291 292 292 292 292 292 293 293 295 295 295 295 295 296 296 297 296 296 295 295 295 295 295 294 296 299 303 306 307 308 308
286 286 287 287 287 287 287 286 286 287 287 287 287 287 287 287 288 288 288 288 288 288 288 288 288 288 288 288 288 288 288 288 288 288 289 289 289 289 289 289 289 289 290 290 291 291 292 292 292 292 291 291 291 291 291 291 291 292 292 293 293 293 293 294 294 294 293 294 295 296 297 298 297 296 295 295 294 294 294 295 298 302 305 307 307 308
288 288 288 288 287 287 287 287 287 287 287 287 287 287 288 289 289 289 289 289 288 289 289 289 288 288 289 289 289 289 289 288 288 289 289 289 289 289 289 289 290 290 290 290 291 291 291 291 290 290 290 290 290 290 290 291 291 291 292 293 294 294 294 294 294 293 292 293 294 295 296 297 298 298 297 296 295 294 294 296 298 301 304 306 307 308
288 288 287 287 287 287 287 287 287 287 288 288 288 288 288 288 288 287 287 287 288 288 288 289 289 289 289 289 289 289 288 288 288 289 290 290 290 290 290 290 290 290 290 290 290 290 289 289 289 289 289 289 290 290 290 290 290 291 291 292 293 294 294 294 294 293 293 293 293 294 295 296 297 298 299 298 298 297 297 298 299 301 304 306 307 308
287 286 286 286 287 288 288 288 288 287 287 287 286 286 286 286 286 286 286 286 286 287 287 287 287 288 288 288 288 287 287 287 287 288 288 289 289 289 290 290 290 289 289 289 289 289 289 289 289 289 289 289 289 289 290 290 290 290 290 291 291 292 293 293 293 293 293 293 293 293 294 295 296 297 298 299 299 299 299 300 300 302 303 305 306 307
285 285 286 286 286 287 287 286 286 285 285 285 285 285 285 285 285 285 286 286 286 286 286 286 286 286 286 286 286 286 286 286 286 287 287 287 288 288 288 289 289 289 288 288 288 288 289 289 289 289 289 289 289 289 289 290 290 290 290 290 290 290 291 291 292 292 292 292 293 293 293 294 295 296 297 298 299 300 300 301 301 302 303 305 306 307
285 285 285 285 285 285 285 285 285 285 285 285 285 285 284 285 285 285 285 285 285 285 286 286 286 286 286 286 286 286 286 286 286 287 287 287 287 287 288 288 288 288 288 288 288 288 289 289 289 289 289 289 289 289 290 290 290 290 290 290 290 290 291 291 292 292 292 292 292 293 293 293 294 295 296 297 298 299 300 301 302 303 303 305 306 307
284 284 284 284 284 284 284 284 284 284 284 284 284 284 284 284 284 284 284 284 284 284 285 285 285 285 285 285 285 285 285 286 286 287 287 288 288 288 288 288 288 288 288 288 288 288 288 288 289 289 289 289 289 289 290 290 290 290 290 290 290 290 290 291 291 292 292 292 292 292 292 293 293 294 295 296 298 299 300 300 301 303 304 305 306 307
283 283 283 283 283 283 283 283 283 283 283 284 284 283 284 284 284 284 284 284 284 284 284 285 285 285 285 285 285 285 286 286 286 286 287 287 288 288 289 289 289 289 288 288 288 288 288 288 288 289 289 289 289 290 290 290 290 290 290 290 290 290 290 291 291 292 292 292 292 292 293 293 293 294 295 296 297 298 299 300 301 302 303 305 306 307
283 283 283 283 283 283 283 283 283 284 284 284 284 283 283 284 284 284 284 284 284 284 285 285 285 286 286 286 286 286 286 286 286 286 286 287 287 288 289 289 289 289 289 289 289 289 289 289 289 289 289 289 290 290 290 290 290 290 290 289 289 290 291 291 292 292 293 293 293 293 293 293 293 293 294 296 297 298 299 300 301 302 304 305 306 307
283 283 283 283 284 284 284 284 284 284 284 284 284 284 284 284 284 284 284 284 285 285 285 285 286 286 286 286 286 286 286 287 287 287 287 287 287 287 287 288 289 289 290 290 290 290 290 290 290 289 289 289 290 290 290 290 290 289 289 289 290 290 291 291 292 292 293 293 293 293 293 293 293 293 294 296 297 298 299 300 301 302 304 305 306 306
284 284 284 284 284 284 284 284 284 283 283 283 283 283 283 284 284 284 284 285 285 286 286 286 286 286 286 286 287 287 287 287 287 287 287 287 287 287 287 287 288 288 289 289 289 290 290 289 289 289 289 289 289 289 289 289 289 289 289 289 290 290 291 291 291 291 292 292 292 292 292 292 293 293 295 296 297 298 300 301 302 303 304 305 305 306
284 283 283 283 282 282 282 282 282 282 283 283 283 283 283 283 283 284 284 284 284 284 285 285 286 287 287 287 287 287 287 287 287 287 287 287 287 287 287 287 288 288 288 288 288 288 288 289 289 288 288 288 288 289 289 289 289 289 289 290 290 291 291 291 291 291 291 292 292 292 292 292 293 294 296 297 297 298 300 301 302 303 304 305 305 306
282 282 281 281 281 282 282 282 282 282 282 282 283 283 283 283 283 283 282 282 283 283 283 284 285 286 287 287 287 287 288 288 288 288 288 288 288 288 288 288 288 288 288 288 288 288 288 288 289 289 288 288 289 289 289 289 289 290 290 290 291 291 291 291 291 291 291 292 292 292 292 293 294 295 296 297 297 298 300 301 302 303 304 305 305 306
281 281 281 281 281 281 281 282 282 282 282 282 282 282 282 282 282 282 282 282 282 282 282 283 283 284 285 285 286 287 288 288 288 289 289 289 289 288 288 288 288 288 288 288 288 288 289 289 289 289 289 289 289 289 289 289 289 290 290 290 291 291 291 291 292 292 292 293 293 292 292 293 295 296 297 297 298 299 300 302 302 303 304 305 305 306
280 280 280 281 281 281 281 281 281 281 281 281 281 281 281 281 281 281 282 282 282 282 282 282 283 283 284 284 285 285 286 287 287 288 288 288 288 288 288 288 288 288 288 288 289 289 289 289 289 289 289 289 289 289 289 289 290 290 290 291 291 291 292 292 293 293 294 293 293 292 292 293 295 296 296 297 298 299 301 302 302 303 304 304 305 305
280 280 280 280 280 280 281 281 281 281 281 281 281 281 281 281 281 281 281 281 282 282 282 283 283 283 284 284 284 284 285 285 286 286 287 287 287 287 287 288 288 288 288 289 289 290 290 290 289 289 289 289 289 290 290 290 290 290 290 291 291 292 293 293 294 294 294 294 293 292 292 293 294 294 295 297 298 299 301 301 302 303 303 304 304 305
279 279 279 280 280 280 280 280 280 280 280 280 280 280 280 281 281 281 281 281 282 282 282 283 283 283 284 284 284 284 285 285 285 286 286 286 287 287 287 287 287 288 289 290 290 290 290 290 289 289 289 289 290 290 291 291 291 291 291 291 291 292 293 294 294 294 294 293 293 293 293 293 293 293 294 296 298 299 300 301 302 302 303 303 304 304
Wind_Speed
29 30 30 30 30 30 32 33 33 33 34 34 34 33 32 31 30 29 29 28 29 29 30 31 31 31 31 31 31 32 32 32 33 33 33 33 33 33 32 33 33 33 32 30 29 27 26 26 27 29 30 31 31 31 30 29 28 27 27 27 27 27 27 27 27 28 29 29 29 29 29 29 29 28 28 28 29 29 30 32 33 33 31 30 29 30
29 29 29 29 28 29 30 31 30 29 30 30 29 28 27 27 27 27 26 26 26 27 28 29 30 32 33 33 34 34 34 33 33 32 31 31 30 30 30 31 32 32 33 32 31 29 28 27 27 28 30 31 32 33 32 32 31 30 29 28 28 29 30 30 29 30 31 31 31 31 31 31 30 29 29 30 31 32 33 34 34 32 30 29 29 30
29 29 29 28 28 28 29 29 29 28 28 28 29 29 28 29 29 29 29 29 29 29 30 32 33 35 36 37 37 36 35 33 31 30 29 29 29 29 30 31 32 33 33 34 34 33 31 29 28 28 29 31 32 33 34 34 33 33 32 31 30 30 31 32 32 32 32 33 33 33 33 33 32 31 30 31 33 34 35 35 34 31 28 27 28 30
29 29 29 29 29 29 29 29 29 29 29 30 31 31 31 32 32 33 33 33 34 34 35 36 36 37 37 37 36 34 32 30 29 29 29 29 29 30 31 31 32 33 33 34 34 34 33 32 30 29 29 30 31 33 34 35 35 35 34 34 33 32 31 32 33 34 34 35 35 35 35 35 34 33 31 32 32 33 33 33 32 30 27 27 28 30
30 29 29 29 29 29 30 30 30 30 31 32 32 33 33 34 34 35 36 36 36 36 37 37 36 35 35 34 32 30 29 28 28 29 30 30 31 31 31 31 30 31 31 32 32 33 33 32 31 30 29 29 30 32 34 35 36 36 36 36 35 34 33 32 33 34 35 37 37 37 36 36 36 35 34 33 33 32 31 31 30 28 27 27 28 30
31 30 29 29 29 30 30 30 30 31 31 32 33 33 34 34 35 35 35 35 35 34 34 33 33 32 31 30 29 28 28 28 29 30 31 31 31 30 28 27 27 27 28 29 30 31 32 32 31 30 29 28 29 30 32 34 36 37 37 37 37 36 35 34 33 33 34 36 38 38 38 37 37 37 37 36 35 33 32 32 31 29 29 29 30 31
32 31 30 30 30 31 31 31 31 31 31 32 33 33 33 33 33 33 32 32 32 32 32 31 31 30 30 30 30 30 30 31 31 31 31 30 28 26 24 23 24 24 25 27 28 30 31 31 31 31 29 28 28 28 30 32 34 36 37 38 38 37 37 37 36 35 34 35 37 38 39 39 38 37 36 36 36 36 35 34 34 33 32 32 32 32
32 32 31 31 31 32 32 32 31 30 30 30 31 31 31 31 30 30 30 30 31 31 31 32 32 32 32 31 31 31 31 31 30 29 27 25 24 22 22 22 22 23 23 24 26 28 30 31 32 32 31 29 28 27 28 29 32 34 36 38 38 38 38 38 38 38 37 37 37 37 38 38 37 35 33 34 36 37 36 36 36 35 35 35 35 35
32 32 32 31 31 31 32 32 31 29 28 27 27 27 28 29 29 30 30 31 31 31 31 31 31 31 30 28 27 27 26 25 25 24 23 22 21 21 22 22 22 22 23 24 25 26 29 31 33 34 34 33 32 30 29 29 30 32 34 37 38 39 39 39 39 39 39 39 39 39 38 38 36 34 33 33 35 37 37 36 36 36 36 36 36 37
31 31 31 31 31 30 30 31 30 28 25 24 24 25 26 28 29 30 31 31 31 29 27 26 26 25 25 23 22 22 22 22 22 21 21 21 22 22 23 23 24 24 25 25 26 28 29 32 34 36 37 37 36 35 33 32 31 31 33 35 37 38 39 39 39 39 40 41 41 41 41 40 38 36 35 35 36 38 38 37 36 36 36 36 37 38
30 30 30 30 29 28 27 28 27 26 24 24 25 26 27 27 28 29 30 30 29 26 24 23 22 22 23 23 22 22 22 23 23 24 24 24 25 25 26 27 27 28 28 29 30 31 32 34 36 37 38 38 37 36 34 33 32 32 32 33 35 37 38 39 40 40 40 40 41 42 42 42 41 40 39 39 39 39 39 38 37 36 36 37 38 39
28 28 28 28 27 26 26 26 25 25 25 25 26 27 28 27 26 26 26 27 27 26 25 25 25 25 25 26 26 26 26 27 27 28 28 28 29 29 30 31 31 32 32 33 33 34 35 36 36 36 35 34 33 32 31 30 30 30 31 32 33 35 37 38 39 40 40 40 40 41 42 42 43 43 43 43 43 42 41 40 39 39 39 38 39 39
28 27 27 27 27 26 26 25 25 25 25 25 25 26 26 26 25 24 25 27 28 28 28 29 29 29 29 29 29 29 29 29 30 30 30 30 30 31 31 32 33 33 33 34 34 34 34 33 32 32 32 31 31 30 29 28 27 27 28 29 31 33 35 37 38 39 40 40 40 40 41 42 43 43 44 45 45 45 45 44 43 43 42 41 40 40
28 27 27 27 27 27 27 26 26 26 26 26 26 26 26 26 26 26 27 28 29 29 28 29 30 30 29 28 28 27 27 28 28 29 29 29 29 28 29 30 31 31 31 32 32 31 31 30 29 29 30 30 31 31 30 29 27 26 26 27 28 30 32 35 37 38 39 40 40 41 41 41 42 43 43 44 45 46 46 46 46 45 44 42 42 42
28 28 28 29 29 29 28 28 28 28 28 28 28 28 28 28 27 27 27 28 28 27 27 27 28 29 28 27 25 24 24 25 26 27 27 28 27 26 26 27 28 29 29 30 31 31 30 29 29 29 30 31 31 32 32 31 30 28 26 26 26 28 30 32 35 37 38 39 40 41 41 41 41 41 42 42 43 44 44 45 45 45 43 43 43 43
29 29 30 31 31 31 31 30 30 30 31 30 29 28 28 27 26 25 24 25 26 25 25 26 27 27 27 25 23 21 21 22 23 24 25 27 27 25 25 26 28 29 29 30 31 32 32 31 31 31 31 31 32 32 33 33 32 31 29 27 26 26 27 30 32 35 37 38 40 40 40 39 39 39 39 40 40 41 42 43 43 44 44 44 44 43
31 30 31 31 32 32 32 32 31 31 31 30 29 27 26 25 24 23 23 24 24 24 23 23 24 25 25 24 22 19 18 19 21 23 25 27 28 28 27 28 30 31 31 32 33 33 33 33 33 33 33 33 33 33 34 34 34 33 32 29 27 26 26 27 30 32 35 38 39 40 39 38 37 37 37 38 39 40 41 42 43 44 44 44 43 43
30 30 31 31 31 31 31 30 30 30 29 28 26 25 25 24 23 23 23 23 23 23 24 23 23 24 24 24 23 20 18 19 22 25 27 30 31 31 30 30 32 33 34 35 35 35 34 34 34 34 35 35 36 36 36 36 36 36 34 32 29 27 26 26 28 30 34 37 39 40 39 37 36 36 36 37 38 40 41 42 43 44 45 44 44 44
28 28 28 29 29 29 29 28 27 26 25 24 24 24 24 24 24 24 25 24 24 25 25 25 25 25 26 26 26 25 23 23 26 28 30 32 33 33 32 31 32 34 35 36 37 36 36 35 35 35 35 36 37 38 38 38 38 38 36 34 31 29 27 26 26 28 32 35 38 39 39 38 37 36 37 37 39 41 43 44 44 45 46 46 46 46
27 27 26 27 27 27 27 27 25 24 24 23 23 23 25 25 26 26 26 26 26 26 27 27 28 28 28 29 30 29 26 26 28 30 31 33 34 35 33 32 32 34 36 37 38 38 37 36 35 34 34 34 35 36 38 38 39 39 38 36 34 31 29 27 26 27 29 33 36 38 39 39 38 37 37 38 40 42 44 45 46 47 48 48 48 47
27 28 27 26 26 27 27 26 25 24 23 23 23 24 26 26 26 27 27 27 27 27 27 28 28 28 28 29 29 29 26 26 28 30 32 33 34 34 33 31 32 34 36 37 38 38 37 36 35 34 33 32 33 34 35 36 37 38 38 37 36 34 31 29 27 27 28 30 32 35 37 38 38 38 38 39 40 42 44 46 47 48 48 48 47 46
30 30 29 28 28 28 28 27 26 25 25 24 25 26 26 26 27 27 27 26 27 28 28 28 28 29 29 30 30 30 30 30 31 32 33 34 36 36 32 30 30 32 34 35 35 35 35 35 35 34 33 32 31 31 32 33 34 35 36 36 36 36 34 32 30 28 27 28 29 32 34 35 35 36 37 38 40 41 43 45 46 48 48 47 46 45
31 31 31 30 29 29 29 29 29 28 28 27 28 28 29 28 28 29 29 29 29 30 31 32 33 33 34 35 37 37 36 35 34 33 32 33 35 35 32 29 28 30 32 32 31 31 32 33 33 34 33 32 31 30 30 30 31 32 33 34 35 36 35 35 33 31 29 28 28 30 32 31 32 33 35 37 38 40 41 43 44 45 46 46 46 45
29 29 29 28 28 28 28 28 29 29 28 28 29 30 30 30 31 32 32 31 31 32 33 34 34 35 36 37 37 37 36 32 30 29 30 31 32 32 30 27 27 30 32 31 30 30 32 32 33 33 33 33 33 32 30 29 29 30 31 32 33 34 35 36 35 34 32 30 29 29 31 30 29 30 32 34 36 38 40 41 42 43 44 45 46 46
27 28 27 27 27 27 27 28 28 28 28 29 29 30 30 31 32 32 32 32 32 32 33 33 33 34 34 32 32 33 32 28 26 26 28 30 31 31 29 26 27 29 31 30 29 30 32 33 33 32 32 33 33 32 31 30 29 29 30 31 32 33 33 34 35 35 35 33 32 31 31 30 30 30 31 33 35 36 37 38 39 40 42 44 45 46
25 26 27 27 27 27 28 28 29 29 29 29 29 29 30 30 31 32 32 32 32 32 32 33 33 33 32 31 31 31 29 26 25 25 26 27 29 29 28 26 25 28 30 29 28 28 31 33 33 32 32 33 33 32 31 31 31 31 31 31 32 32 32 32 33 34 35 35 34 33 32 32 31 31 31 33 34 35 35 35 35 36 38 41 44 46
24 24 25 26 27 28 29 30 30 30 30 29 29 28 28 29 30 32 34 33 32 32 33 34 34 33 33 32 31 30 28 25 24 24 24 25 28 29 29 26 26 28 30 29 28 27 29 32 33 33 32 33 33 32 31 31 32 32 32 33 33 33 32 32 32 32 33 34 35 35 34 33 33 32 32 33 34 35 35 33 32 32 34 37 41 45
23 24 25 26 27 29 30 31 32 32 31 30 29 28 28 29 31 35 36 35 34 34 35 34 33 32 31 30 29 28 27 26 26 25 24 25 28 30 29 26 26 27 29 28 27 27 29 30 31 31 31 31 31 30 30 30 31 32 33 33 34 33 33 32 31 30 31 32 34 35 35 34 33 31 30 31 33 35 35 34 32 31 32 35 38 43
24 25 27 29 30 31 32 33 34 34 34 33 32 31 30 32 34 37 38 37 35 34 33 32 30 29 29 29 29 30 30 30 29 26 25 26 29 31 29 26 26 26 26 26 27 28 28 28 28 27 28 28 28 27 27 27 28 29 31 32 32 32 31 30 29 29 28 30 31 33 34 34 32 30 29 29 30 32 34 35 33 32 33 35 38 41
25 28 31 32 33 34 33 34 34 34 33 32 32 31 31 32 33 35 36 35 33 32 30 30 29 30 30 31 32 32 32 31 28 25 23 26 28 29 26 24 25 25 23 22 24 26 27 26 24 24 24 24 24 23 23 24 25 26 27 28 29 29 29 29 28 27 27 28 30 32 34 34 33 31 29 28 28 29 32 34 34 34 34 36 38 41
29 32 34 36 35 33 31 30 30 29 29 29 28 28 28 29 30 31 31 32 31 31 32 32 32 32 32 30 30 30 29 27 24 20 20 23 25 25 22 22 23 24 22 20 21 24 27 26 24 22 22 22 22 22 23 24 25 25 26 26 28 28 28 27 26 26 26 27 29 31 34 35 36 35 33 31 30 29 30 32 34 35 35 36 39 41
34 36 36 36 34 32 31 31 31 32 33 33 32 31 31 31 31 32 33 33 34 34 34 34 34 34 32 31 30 30 29 27 24 21 20 23 25 24 22 22 25 26 24 23 24 26 27 28 26 24 24 24 25 25 26 27 28 29 28 29 30 30 29 27 26 25 26 27 28 30 33 35 37 38 38 37 34 32 31 32 33 35 35 37 39 41
38 38 35 34 32 32 32 34 35 36 36 35 35 35 34 34 34 35 35 35 35 35 35 35 35 34 32 32 32 32 32 30 28 25 24 26 27 27 26 26 27 28 28 28 29 30 31 32 31 29 28 27 26 26 27 29 30 30 30 31 32 33 31 29 27 27 28 28 28 29 30 33 36 39 40 40 38 36 33 33 34 35 36 37 39 41
38 37 35 33 32 32 33 35 35 35 35 34 33 33 32 32 32 32 32 33 33 34 35 35 36 35 33 31 31 32 32 32 30 29 27 28 29 30 30 30 29 29 29 30 31 32 32 32 30 27 26 26 26 27 28 29 29 29 29 31 32 33 33 32 32 32 32 31 30 29 29 30 33 36 38 40 39 37 35 34 34 36 38 38 39 41
38 36 34 31 31 32 34 36 36 36 34 33 32 30 29 29 30 30 31 31 32 33 35 36 37 37 35 34 33 32 32 32 31 30 29 28 29 31 32 32 31 30 29 30 29 29 27 27 26 26 26 28 29 30 30 29 29 29 29 29 30 32 33 34 35 35 35 35 33 31 30 29 29 31 34 36 37 36 35 34 35 37 39 39 39 40
36 34 30 28 29 32 34 35 35 35 34 33 31 28 26 25 26 26 27 28 28 30 32 33 35 35 35 35 35 34 34 34 34 32 31 29 29 29 30 32 31 29 28 29 29 28 28 29 29 29 30 31 31 31 31 29 28 28 28 29 29 29 30 32 33 35 36 37 36 34 31 29 29 29 31 32 34 34 33 33 34 37 39 40 39 40
29 28 28 29 31 33 34 33 30 27 25 22 21 20 20 22 23 24 24 24 25 26 27 29 30 31 32 33 35 36 38 38 37 36 34 32 30 30 30 31 31 30 29 30 30 31 31 31 32 31 31 31 31 31 31 30 29 29 30 30 30 29 29 30 31 33 34 36 36 35 33 31 30 30 30 30 31 32 32 32 34 37 39 40 39 39
31 31 31 31 30 28 24 22 21 21 21 22 23 24 25 26 27 27 27 28 28 28 29 30 31 32 33 35 37 38 39 39 39 38 37 36 35 34 34 35 35 34 33 32 33 33 33 33 32 32 31 31 31 31 30 30 30 31 32 33 33 32 32 31 32 32 34 35 36 35 34 32 31 31 31 31 31 31 31 31 33 36 39 39 38 37
31 31 30 30 29 29 28 28 28 27 27 28 29 29 29 29 29 29 29 29 30 31 31 32 33 35 36 37 38 38 38 38 37 37 36 36 37 37 38 38 38 37 35 34 35 35 35 35 34 32 31 31 32 32 31 31 31 31 33 34 35 36 35 35 34 34 34 35 35 36 35 33 31 31 31 31 32 33 33 31 31 34 38 38 37 37
29 29 29 28 28 29 29 30 30 30 31 31 31 31 30 29 29 28 28 29 29 30 31 32 33 35 36 37 37 38 37 37 37 36 36 35 35 36 37 39 39 38 37 36 37 37 37 36 35 34 34 33 34 34 33 33 33 33 33 33 33 33 33 33 32 33 35 36 36 36 36 34 33 31 30 30 32 33 34 32 32 33 36 37 37 38
27 28 28 28 28 29 29 30 31 32 32 32 32 31 30 29 29 29 29 29 30 31 31 31 32 34 35 36 36 36 37 37 37 36 36 35 35 35 35 37 38 38 38 38 38 39 39 38 37 36 36 37 37 36 36 36 35 35 34 33 32 33 33 31 31 32 34 35 36 36 36 35 34 32 31 31 31 32 33 32 32 33 35 35 38 41
27 28 28 28 29 29 30 30 30 30 30 29 30 30 30 30 30 31 31 31 31 31 31 31 32 33 34 34 34 34 34 34 34 34 34 33 34 34 35 36 37 37 37 38 39 39 39 39 39 38 38 38 38 37 36 36 36 36 34 34 34 34 34 32 31 30 31 33 35 36 36 35 34 33 32 32 32 32 32 31 31 32 33 34 38 42
27 27 28 28 28 29 29 29 29 28 29 29 30 30 31 31 30 30 31 31 32 32 32 33 33 33 34 35 35 34 33 32 31 31 31 31 31 32 33 35 36 36 37 39 40 40 39 39 39 39 39 38 38 37 36 37 38 38 36 35 33 32 30 30 29 28 28 30 33 35 36 35 34 34 33 32 32 31 31 31 31 31 32 34 38 43
27 28 28 29 29 29 29 28 27 27 27 28 29 30 31 30 30 30 31 32 33 33 34 34 34 34 35 35 36 35 34 33 32 30 30 29 29 30 31 32 33 34 36 38 39 39 38 38 38 38 38 37 37 36 36 37 38 38 36 35 33 32 31 31 30 29 29 31 33 35 35 35 34 33 33 32 31 31 31 32 31 32 33 35 38 43
28 29 28 28 28 27 27 27 28 28 29 30 30 31 31 30 30 30 30 31 31 31 32 32 32 33 34 35 35 35 34 33 32 31 30 29 29 29 29 30 30 31 33 35 36 37 38 38 37 37 37 37 37 37 37 38 38 38 37 35 34 33 34 33 33 32 32 33 34 34 33 32 32 32 32 31 30 30 31 33 33 33 34 36 39 43
27 28 29 31 32 32 32 32 32 33 33 33 32 32 31 31 30 30 30 30 30 30 31 31 31 31 32 34 34 33 32 31 31 30 30 29 29 28 28 28 28 29 31 32 34 35 37 38 38 38 37 36 36 37 38 37 37 38 37 35 34 34 34 34 33 32 32 32 32 32 30 29 29 30 31 31 30 31 32 33 34 34 36 38 41 44
30 31 32 33 33 33 32 32 33 33 33 33 33 32 31 31 31 31 32 31 31 30 30 30 30 31 31 31 31 31 30 30 31 31 30 29 28 28 27 27 28 29 31 33 34 36 38 38 38 36 35 35 35 35 36 36 36 36 35 35 34 34 34 34 33 32 31 31 31 29 27 26 26 28 29 30 31 32 33 34 34 35 37 40 42 45
30 31 32 32 32 32 32 31 32 32 32 32 32 32 32 31 31 31 32 31 31 30 29 30 30 30 31 31 31 30 30 30 30 30 30 29 28 27 27 27 29 31 32 34 36 38 39 38 37 35 35 35 35 36 36 36 36 36 35 35 34 34 34 34 33 32 31 31 30 27 24 23 23 25 27 29 30 32 34 34 35 36 38 41 43 46
30 30 30 30 30 30 31 31 31 32 32 33 33 33 33 32 30 30 31 31 31 30 30 30 30 30 31 31 31 31 31 31 31 31 30 29 28 28 28 29 30 31 33 34 36 37 37 36 35 34 35 36 37 38 37 37 37 36 36 35 34 34 34 34 33 32 32 32 29 26 22 20 20 22 25 27 30 32 33 34 35 37 39 41 44 47
29 29 29 29 30 30 31 32 32 32 32 32 33 33 32 32 31 31 30 30 29 29 29 29 30 30 30 31 31 32 31 31 32 32 32 31 30 30 30 30 30 30 31 32 33 32 32 32 33 35 36 37 37 38 39 40 39 38 37 36 35 35 33 32 30 30 31 30 28 23 20 18 19 21 24 26 29 31 33 34 36 38 40 42 45 47
30 29 29 30 30 30 31 32 32 32 32 32 32 32 31 31 31 30 29 29 28 28 28 29 29 30 31 32 32 32 32 31 32 32 32 32 31 30 30 30 30 30 30 30 29 27 27 27 29 33 35 36 37 38 40 40 40 38 37 36 36 35 34 32 30 30 30 29 26 22 19 18 19 21 23 25 28 31 33 35 37 39 41 43 45 46
Wind_Direction
273 274 274 274 274 275 275 276 277 278 280 281 283 283 284 284 283 283 283 283 283 284 284 285 285 286 287 288 289 289 290 291 291 291 292 292 292 292 292 293 293 292 292 290 288 285 281 277 273 270 268 266 266 265 263 260 256 250 244 238 233 230 230 233 237 238 235 234 233 233 233 234 234 234 234 234 233 231 230 229 226 223 222 223 226 229
274 275 275 275 275 276 277 279 280 281 282 283 284 283 282 281 279 277 276 275 274 275 277 278 280 282 283 285 286 287 288 288 288 288 289 289 289 290 291 291 291 291 291 290 288 286 282 278 274 271 268 266 265 264 263 262 260 257 252 245 238 232 230 231 234 237 235 233 233 233 233 233 233 233 234 236 236 234 232 229 224 221 221 224 228 231
275 276 276 276 276 276 276 277 278 278 277 277 277 275 274 272 271 271 270 269 269 270 272 275 277 280 281 283 285 286 286 287 286 286 286 286 287 288 289 289 289 289 289 288 287 286 284 280 276 273 269 267 265 264 263 262 261 259 258 254 248 241 235 232 232 233 233 233 233 233 233 233 232 231 232 236 238 237 233 228 222 219 222 227 231 234
275 275 276 276 276 275 275 275 275 274 273 272 272 271 271 270 269 269 270 270 271 272 273 275 277 279 281 282 284 285 286 286 286 285 285 286 286 287 288 288 288 287 287 286 285 285 283 282 279 275 272 268 266 264 263 261 260 259 259 258 256 252 245 239 234 232 232 233 233 233 233 233 232 231 231 234 238 239 237 229 222 219 224 229 233 235
275 275 276 277 277 276 275 275 274 273 272 271 271 271 271 270 271 272 272 273 274 274 275 276 277 279 280 282 283 284 285 285 285 285 286 287 289 290 290 290 290 288 287 286 285 283 283 281 280 277 274 270 266 264 262 261 260 258 257 257 257 256 253 248 242 236 233 232 233 234 234 235 234 233 232 232 234 236 238 233 228 226 228 233 235 236
276 276 277 277 277 276 276 275 274 274 274 274 273 273 273 274 274 275 275 275 276 276 276 277 277 277 278 279 280 281 281 282 282 284 286 288 290 292 292 292 292 291 291 289 288 285 283 282 280 278 275 271 267 264 262 260 259 258 257 255 255 254 254 253 249 244 238 235 234 234 235 236 237 236 235 232 231 232 235 235 234 234 236 237 237 237
278 278 278 278 277 277 277 276 276 276 277 278 279 279 278 277 277 276 276 276 276 276 276 275 275 275 275 276 276 277 278 279 281 283 285 287 289 291 291 291 291 291 292 292 291 289 286 284 282 280 277 274 270 266 263 260 259 258 256 255 254 253 252 252 252 250 246 241 237 234 234 234 236 236 236 233 231 231 233 234 236 237 238 238 237 236
279 279 279 278 279 279 279 278 278 279 280 281 282 282 282 280 278 277 276 275 275 275 276 276 276 276 276 276 277 278 279 280 282 284 286 288 288 288 287 286 286 287 287 288 288 288 287 286 284 282 280 278 274 271 267 263 260 258 256 255 253 252 251 250 250 250 250 248 243 238 234 233 233 234 235 233 231 230 232 234 235 237 237 237 236 235
279 280 280 279 279 280 281 282 282 283 283 283 282 281 281 281 280 279 279 278 278 279 280 281 281 281 281 280 280 280 280 281 282 284 285 285 284 283 281 280 280 279 279 280 281 282 284 284 285 285 284 283 281 278 273 269 264 260 257 255 253 252 251 249 249 249 249 249 248 245 241 237 234 233 233 233 232 231 232 234 236 237 238 237 235 234
279 279 280 280 280 281 282 284 285 285 284 282 279 277 278 279 281 283 283 283 283 284 284 284 284 283 282 281 279 277 276 276 275 275 276 276 275 274 273 272 272 272 272 272 273 275 278 281 283 285 286 286 286 283 280 275 270 265 261 257 254 252 250 249 248 248 248 248 249 249 248 245 242 239 236 234 233 233 233 234 237 239 240 239 236 233
279 279 280 281 281 282 281 282 283 284 282 280 278 276 276 277 280 283 285 286 286 285 283 280 277 276 276 275 274 273 272 272 271 270 270 269 269 269 269 269 269 269 269 269 270 272 275 278 281 283 285 286 287 286 283 279 275 270 265 260 256 253 251 249 248 247 247 247 248 249 250 250 249 246 243 240 237 236 236 237 239 242 244 242 238 233
278 279 279 280 281 281 280 280 281 280 279 279 279 278 278 278 279 281 282 282 283 281 279 276 273 271 272 273 274 275 274 273 273 273 272 271 271 271 271 271 271 271 272 272 273 274 276 278 281 283 285 286 286 286 285 283 279 274 269 264 259 255 252 250 248 247 247 247 247 248 249 251 251 250 249 246 244 242 241 241 243 246 247 245 239 232
275 276 277 277 278 278 279 279 280 280 279 278 278 279 280 280 280 279 278 278 278 278 279 278 277 276 274 275 276 277 278 277 276 276 275 274 274 274 275 275 276 277 277 278 279 279 280 282 284 285 286 287 288 288 287 286 283 278 273 267 262 257 253 250 248 247 247 247 247 248 248 249 250 251 251 250 249 247 246 247 248 250 249 245 237 231
272 273 274 275 275 276 276 277 278 278 277 277 276 277 278 279 279 278 278 277 278 279 280 281 281 280 279 278 278 279 280 280 279 278 277 276 275 276 277 277 278 279 280 281 281 282 283 284 285 286 287 288 289 289 289 288 286 283 278 272 266 260 255 251 248 247 246 246 247 247 247 247 248 249 250 250 250 250 250 250 251 251 248 241 233 228
271 273 274 274 274 274 274 274 274 274 274 274 275 276 277 278 278 278 279 280 281 282 283 282 282 281 281 281 281 281 281 281 281 280 279 276 275 274 274 274 274 275 276 277 278 279 280 281 282 283 284 286 287 288 289 289 288 286 283 278 271 264 257 252 249 247 246 246 247 247 247 246 246 246 248 249 250 250 251 250 249 247 242 235 228 226
271 272 273 273 273 273 272 272 272 273 274 275 276 277 278 278 279 279 279 281 283 285 285 286 286 286 284 284 283 284 284 282 281 280 279 276 274 272 270 271 271 270 271 272 273 275 277 277 278 278 280 281 283 284 286 287 287 287 286 284 279 271 262 255 251 248 246 246 246 247 246 245 245 245 246 247 249 250 250 249 246 241 235 229 225 225
272 272 272 272 273 273 273 273 273 274 275 276 276 276 276 276 277 277 278 279 282 284 285 286 288 289 289 288 286 284 284 282 281 280 278 276 274 273 272 271 271 270 269 268 269 271 273 274 275 276 276 277 278 280 282 283 284 285 286 286 283 278 270 261 255 252 248 246 246 247 247 246 245 245 246 247 249 249 248 245 241 237 232 228 225 226
275 274 273 273 273 274 275 276 276 276 276 276 276 275 274 272 272 273 273 275 279 281 282 284 284 285 287 287 285 283 282 280 280 280 280 278 278 277 276 275 273 273 272 270 270 270 271 272 273 274 274 275 275 276 278 279 281 282 283 284 284 282 277 270 262 256 250 247 247 248 248 247 246 245 246 247 248 247 246 242 238 234 231 228 228 229
280 278 277 276 276 277 277 277 277 277 277 277 277 276 275 273 272 271 271 273 275 277 279 281 282 281 282 282 282 282 282 281 281 282 282 282 281 280 280 278 277 276 275 274 274 274 274 273 273 273 273 273 273 274 275 276 277 278 279 280 281 281 280 275 268 261 254 249 249 250 250 249 247 245 244 245 245 245 243 240 237 233 231 230 231 232
280 279 277 278 279 279 278 277 277 277 278 278 278 278 277 277 276 275 274 274 275 275 276 278 280 280 281 281 281 283 285 284 283 283 284 285 284 282 282 281 280 279 279 278 278 279 279 279 278 276 274 273 272 272 273 274 275 276 276 276 276 277 278 277 274 267 259 254 252 253 254 252 250 247 244 243 242 241 240 238 236 234 232 232 233 234
275 274 274 275 277 278 278 278 279 279 279 279 279 279 278 280 280 280 279 280 280 280 281 281 281 281 283 284 285 286 286 285 285 285 287 286 285 283 284 284 283 282 281 281 282 283 284 284 283 282 279 275 273 272 272 273 274 275 275 274 273 273 274 275 275 272 266 261 258 257 257 256 253 250 246 243 241 240 239 238 236 234 234 234 234 234
268 269 270 271 272 274 276 277 278 278 278 278 278 278 278 280 281 282 282 283 284 284 284 282 282 282 283 283 282 281 280 280 281 283 286 286 284 283 284 285 284 283 281 282 283 285 285 286 286 286 284 281 278 276 275 274 274 275 275 274 272 271 271 272 273 273 271 268 262 258 259 259 257 253 249 245 243 241 240 239 238 236 236 236 235 234
271 272 273 272 271 271 272 273 274 275 275 274 274 274 275 276 277 278 279 280 281 281 281 281 281 280 278 276 276 277 278 279 280 281 283 282 281 283 285 285 284 282 280 281 282 282 282 283 284 286 287 285 283 281 279 277 276 275 275 275 273 271 270 269 270 271 271 271 266 259 257 260 260 256 252 249 246 244 242 242 241 240 239 238 236 234
283 283 283 282 280 279 279 278 279 279 279 276 273 272 271 272 272 273 275 276 277 278 278 279 279 279 278 279 280 282 283 284 285 283 280 278 278 282 285 285 284 282 281 281 282 282 282 281 281 282 284 284 284 283 282 281 279 278 277 276 275 274 272 269 268 268 269 270 269 265 259 262 262 258 253 250 248 247 245 244 244 244 243 241 238 236
290 290 289 290 291 290 288 287 286 285 284 282 280 278 277 276 276 276 277 278 278 279 280 280 280 280 281 282 284 285 286 286 286 283 279 276 277 280 283 283 283 282 281 282 282 282 282 282 281 281 281 281 282 282 282 281 280 279 279 278 277 277 275 272 269 267 267 267 269 269 266 266 264 259 254 250 249 248 248 247 246 245 245 244 241 238
286 287 287 287 287 286 285 284 283 283 281 280 279 279 279 279 280 280 280 279 279 280 280 278 277 277 279 281 281 281 283 284 283 280 276 276 277 279 281 282 282 281 281 282 282 282 282 282 281 281 280 280 280 280 280 279 278 279 279 279 279 278 278 276 273 269 266 266 267 269 269 269 266 261 255 251 248 248 249 249 249 248 247 246 244 241
278 277 277 278 280 281 281 282 281 280 278 277 275 275 275 277 277 277 276 275 276 277 276 273 273 274 276 276 276 277 280 280 279 276 275 276 276 277 279 282 282 282 281 282 283 282 282 281 281 281 280 280 279 279 278 277 277 277 278 279 279 279 279 279 276 272 268 265 266 267 269 268 267 263 258 253 250 248 249 250 251 251 250 249 247 244
280 280 280 282 284 287 289 288 285 282 279 277 275 274 272 272 271 271 270 271 271 271 270 268 268 271 272 273 274 276 278 278 276 275 275 275 274 275 278 281 281 280 281 283 285 285 282 281 281 281 281 280 280 279 278 277 277 277 277 278 279 280 281 280 279 275 270 266 265 265 267 267 265 262 259 255 252 250 248 248 250 252 254 253 250 246
287 289 290 290 292 295 297 294 288 282 277 274 273 271 268 266 265 265 267 268 268 268 268 267 268 270 274 277 279 280 279 276 275 275 276 274 272 273 277 279 279 278 279 285 288 288 284 282 282 283 282 281 280 280 279 278 277 277 278 280 281 282 283 282 280 276 271 266 263 263 264 263 262 260 258 257 255 253 249 246 247 250 254 254 251 247
292 294 294 293 294 297 298 294 289 282 276 273 270 268 266 263 262 263 265 266 267 268 270 271 272 274 276 279 281 281 278 275 275 275 275 272 270 271 274 276 276 276 279 285 290 290 286 285 284 283 282 281 280 278 277 276 275 276 278 280 282 283 284 283 281 276 271 266 262 261 261 260 259 257 257 259 260 258 253 247 244 246 251 253 251 247
294 294 293 293 293 293 292 291 288 284 281 278 275 272 269 266 265 265 266 267 268 269 271 272 273 273 273 275 276 276 276 275 274 273 272 270 269 270 273 274 275 277 279 282 286 288 288 287 286 283 281 279 277 275 274 273 273 273 275 277 279 280 280 280 278 276 273 269 265 262 260 258 257 257 257 260 263 263 259 250 243 242 247 251 251 248
294 294 293 293 292 289 284 283 283 283 283 282 280 278 276 274 272 271 271 270 269 269 269 269 269 269 268 267 267 268 271 273 273 271 268 267 269 270 272 273 275 277 277 277 278 279 282 283 283 280 278 277 277 277 277 276 276 274 273 273 274 275 277 277 277 277 277 276 273 268 263 260 258 257 257 259 262 264 262 253 243 239 242 248 250 248
295 296 295 294 292 289 287 286 285 284 283 281 279 278 277 276 275 274 273 271 270 268 267 266 266 265 265 264 264 265 268 272 273 272 269 266 267 269 270 272 273 275 277 277 276 274 273 274 275 276 276 278 280 283 284 284 283 280 277 275 274 275 276 277 278 279 280 282 281 277 271 266 262 259 258 259 261 262 261 255 245 238 237 243 248 248
296 296 294 292 290 290 292 293 293 290 287 284 281 279 278 278 277 276 274 272 270 268 266 264 263 262 261 261 262 265 269 273 276 276 272 267 265 266 269 271 272 273 276 277 275 273 270 270 272 276 281 283 284 285 286 287 286 285 282 280 278 277 278 278 278 278 279 282 284 283 279 273 267 263 260 259 259 259 259 255 246 237 233 237 243 246
295 292 288 287 287 290 293 293 293 291 290 288 286 285 283 281 278 276 273 270 268 266 264 262 261 259 258 259 261 265 270 275 278 278 272 266 263 265 268 269 270 271 273 273 273 273 273 275 280 285 290 289 288 286 285 285 285 285 285 283 282 280 279 278 278 278 278 280 282 283 284 281 275 269 263 260 258 256 255 252 246 238 232 233 238 242
291 286 283 283 288 291 292 291 288 287 286 285 285 284 283 281 279 276 274 273 271 269 266 264 261 259 258 259 262 267 273 277 279 277 271 264 261 262 264 266 267 269 269 271 273 276 280 283 285 287 288 288 287 285 284 284 284 283 283 282 280 279 279 279 279 279 278 278 279 281 284 285 283 277 270 263 258 254 251 248 244 239 234 231 233 237
291 288 288 291 295 295 293 289 286 284 283 283 283 284 285 285 286 286 285 282 280 277 275 272 269 266 265 266 269 272 275 278 278 275 271 267 264 263 263 265 266 267 268 270 272 275 278 281 283 283 283 282 282 282 283 283 283 281 279 278 278 279 280 280 280 279 278 277 277 279 282 285 286 284 279 271 264 258 252 246 242 238 235 233 232 233
292 292 293 295 295 295 294 293 292 292 291 291 291 291 290 290 289 288 287 285 282 280 277 275 273 272 270 271 272 273 275 275 275 274 272 271 269 268 267 267 268 268 268 269 270 272 273 275 276 277 278 277 277 278 279 281 281 280 278 277 276 277 278 279 279 278 277 276 275 276 279 282 285 286 285 280 275 268 261 250 241 236 235 234 233 232
290 290 290 289 287 286 287 290 293 294 294 293 292 292 291 289 288 286 283 281 279 277 275 274 273 272 271 271 272 273 274 274 274 274 273 272 271 270 269 268 268 268 268 268 268 269 269 269 270 271 273 274 276 276 278 278 279 279 280 280 279 278 277 277 277 277 276 274 274 275 277 279 283 285 286 283 280 275 269 258 245 236 234 234 234 233
290 289 288 286 284 283 284 286 287 288 289 289 290 290 290 289 287 284 281 279 277 276 275 274 274 273 273 273 273 273 274 275 276 277 276 274 272 270 269 267 267 267 267 267 267 266 266 266 267 268 269 271 273 275 276 276 277 278 280 281 280 279 278 277 278 278 277 275 274 275 276 278 281 284 286 284 279 274 269 261 250 239 235 235 233 230
290 289 289 288 287 286 285 285 286 287 288 289 291 292 292 292 291 289 287 286 284 283 281 280 280 279 279 277 276 275 275 276 277 277 277 276 275 273 271 268 267 267 267 267 266 266 265 265 266 267 268 270 271 272 273 274 275 276 277 277 278 278 278 278 277 277 277 277 276 276 277 279 282 284 286 285 281 275 269 262 252 242 238 238 234 226
291 291 290 290 289 289 289 290 291 292 293 294 294 295 296 297 296 296 294 293 291 291 291 290 288 287 286 285 284 282 280 278 278 278 277 277 276 276 274 272 270 269 268 267 266 266 266 266 266 266 267 269 270 270 270 271 272 273 273 274 276 278 280 279 277 276 277 278 278 279 279 281 283 285 287 287 283 277 269 260 251 244 242 240 233 224
291 291 291 292 292 293 294 294 294 294 294 294 295 295 296 297 296 295 294 292 291 291 291 291 289 286 284 284 286 286 285 284 282 280 279 277 276 276 275 275 274 272 269 266 264 264 265 265 266 266 268 269 268 268 269 270 271 271 271 272 273 275 275 275 275 275 276 277 278 279 280 282 283 285 285 285 282 275 266 257 248 243 242 238 228 219
292 292 293 294 294 294 294 293 293 293 293 293 293 294 294 293 293 293 292 291 290 289 289 289 287 283 280 279 279 281 283 285 285 284 282 280 277 275 274 274 273 272 270 266 263 262 262 263 264 265 267 267 267 267 267 268 269 270 270 271 271 269 269 270 272 273 273 274 275 277 279 281 283 284 284 282 278 270 261 253 247 242 239 232 224 217
297 296 296 296 297 297 296 295 294 293 292 292 291 291 291 291 292 292 292 291 291 291 291 290 286 280 276 274 275 276 277 279 281 282 282 281 279 277 274 272 271 270 268 266 265 264 263 264 265 267 268 267 266 266 266 266 268 269 269 270 269 269 268 269 271 271 271 272 274 277 279 281 282 282 282 279 273 264 255 248 243 238 232 224 218 214
296 296 296 296 295 295 294 294 293 293 293 292 291 290 290 291 290 289 288 288 289 290 290 291 288 283 278 275 274 274 274 274 275 276 277 277 277 276 274 273 271 270 269 268 268 268 267 266 267 269 269 269 268 267 267 266 266 267 268 268 268 268 269 270 271 271 272 273 276 278 281 281 281 281 281 278 271 261 250 242 236 230 224 218 214 211
294 295 294 294 294 294 293 293 294 294 293 292 291 290 290 290 289 289 288 288 288 287 286 285 285 284 283 281 279 278 276 274 274 275 274 273 273 272 271 271 272 273 273 273 273 273 271 269 268 267 267 267 267 267 267 267 266 266 266 267 267 268 268 270 271 273 275 276 278 280 281 281 281 282 281 277 268 257 245 235 228 223 219 216 213 211
295 295 295 295 295 295 295 295 294 293 292 291 291 290 290 290 290 290 290 290 289 288 286 284 282 281 281 282 281 281 280 279 278 276 275 273 272 270 270 271 273 275 277 278 277 275 271 268 266 265 266 266 265 266 267 267 267 266 266 266 267 267 268 269 272 274 275 276 277 278 279 280 283 285 282 271 258 246 237 227 221 217 215 213 212 210
297 296 296 296 296 295 294 293 293 292 291 291 291 291 292 292 291 291 291 291 290 289 287 285 283 282 281 279 278 278 277 278 278 277 276 275 275 274 274 275 276 278 279 279 277 274 270 267 266 267 268 267 266 265 266 267 267 266 265 265 265 266 266 267 268 269 270 272 274 275 275 276 282 285 279 262 245 234 227 220 214 211 211 210 209 208
299 297 296 296 295 294 293 293 292 292 292 292 292 292 293 293 293 292 291 291 290 288 286 285 283 282 281 280 279 278 277 276 275 275 275 275 275 275 276 276 277 278 278 276 273 269 266 266 268 270 271 269 267 265 265 266 266 266 264 264 263 263 262 262 262 264 266 269 271 271 270 272 278 280 272 253 236 224 218 212 208 205 205 205 206 206
300 298 297 296 295 294 293 293 293 293 292 292 293 293 293 294 293 293 292 290 288 286 285 283 282 281 280 280 280 280 279 278 276 275 275 274 274 274 273 274 274 274 273 270 268 265 264 265 267 269 270 271 271 269 266 264 262 261 259 259 259 259 259 259 261 263 266 268 269 268 266 268 274 275 266 246 228 216 211 205 200 198 198 200 201 204